• Em Portugal
  • Lista de países
  • Para 7 dias
  • Temperatura da água
  • Mapas de satélite
  • Mapa do tempo
  • Widgets de tempo
  • user-avatar
    Iniciar Sessão

    Previsão horária em Hutor

    Hoje, 19 Julho, Quinta-feira

    Tempo Temperatura Precipitação Vento Pressão Humidade
    00:00 +18°C° 0 mm 2 m/s 728 mmHg 98%
    01:00 +18°C° 0 mm 2 m/s 728 mmHg 98%
    02:00 +18°C° 0 mm 2 m/s 728 mmHg 99%
    03:00 +18°C° 0,1 mm 2 m/s 728 mmHg 98%
    04:00 +18°C° 0,1 mm 2 m/s 728 mmHg 98%
    05:00 +19°C° 0,1 mm 2 m/s 728 mmHg 97%
    06:00 +19°C° 0,2 mm 2 m/s 728 mmHg 96%
    07:00 +20°C° 0,2 mm 2 m/s 728 mmHg 94%
    08:00 +20°C° 0,2 mm 2 m/s 728 mmHg 92%
    09:00 +21°C° 0,5 mm 2 m/s 728 mmHg 89%
    10:00 +22°C° 0,5 mm 3 m/s 728 mmHg 86%
    11:00 +24°C° 0,5 mm 3 m/s 728 mmHg 83%
    12:00 +24°C° 0,9 mm 3 m/s 728 mmHg 82%
    13:00 +25°C° 0,9 mm 3 m/s 728 mmHg 80%
    14:00 +25°C° 0,9 mm 3 m/s 728 mmHg 79%
    15:00 +25°C° 0,1 mm 3 m/s 728 mmHg 79%
    16:00 +25°C° 0,1 mm 2 m/s 728 mmHg 80%
    17:00 +25°C° 0,1 mm 2 m/s 728 mmHg 81%
    18:00 +24°C° 0 mm 2 m/s 728 mmHg 85%
    19:00 +21°C° 0 mm 2 m/s 728 mmHg 89%
    20:00 +21°C° 0 mm 1 m/s 728 mmHg 93%
    21:00 +21°C° 0,1 mm 1 m/s 728 mmHg 94%
    22:00 +20°C° 0,1 mm 1 m/s 728 mmHg 95%
    23:00 +20°C° 0,1 mm 1 m/s 728 mmHg 96%

    Amanhã, 20 Julho, Sexta-feira

    Tempo Temperatura Precipitação Vento Pressão Humidade
    00:00 +20°C° 0 mm 1 m/s 729 mmHg 96%
    01:00 +19°C° 0 mm 1 m/s 729 mmHg 96%
    02:00 +19°C° 0 mm 1 m/s 729 mmHg 96%
    03:00 +20°C° 0 mm 1 m/s 729 mmHg 96%
    04:00 +20°C° 0 mm 1 m/s 729 mmHg 96%
    05:00 +20°C° 0 mm 1 m/s 729 mmHg 96%
    06:00 +21°C° 0,1 mm 1 m/s 729 mmHg 92%
    07:00 +22°C° 0,1 mm 1 m/s 730 mmHg 89%
    08:00 +23°C° 0,1 mm 2 m/s 730 mmHg 86%
    09:00 +24°C° 0,4 mm 1 m/s 730 mmHg 83%
    10:00 +25°C° 0,4 mm 1 m/s 730 mmHg 80%
    11:00 +26°C° 0,4 mm 1 m/s 730 mmHg 77%
    12:00 +26°C° 0,8 mm 1 m/s 730 mmHg 75%
    13:00 +27°C° 0,8 mm 1 m/s 730 mmHg 72%
    14:00 +27°C° 0,8 mm 1 m/s 730 mmHg 70%
    15:00 +27°C° 0,1 mm 1 m/s 730 mmHg 71%
    16:00 +27°C° 0,1 mm 1 m/s 730 mmHg 71%
    17:00 +27°C° 0,1 mm 1 m/s 730 mmHg 72%
    18:00 +26°C° 0,1 mm 1 m/s 730 mmHg 76%
    19:00 +24°C° 0,1 mm 1 m/s 730 mmHg 80%
    20:00 +23°C° 0,1 mm 1 m/s 730 mmHg 85%
    21:00 +23°C° 0,1 mm 1 m/s 730 mmHg 87%
    22:00 +22°C° 0,1 mm 1 m/s 730 mmHg 89%
    23:00 +21°C° 0,1 mm 1 m/s 730 mmHg 90%

    Depois de amanhã, 21 Julho, Sábado

    Tempo Temperatura Precipitação Vento Pressão Humidade
    00:00 +21°C° 0,1 mm 1 m/s 731 mmHg 91%
    01:00 +21°C° 0,1 mm 1 m/s 731 mmHg 92%
    02:00 +21°C° 0,1 mm 1 m/s 731 mmHg 92%
    03:00 +21°C° 0,2 mm 1 m/s 731 mmHg 93%
    04:00 +21°C° 0,2 mm 1 m/s 731 mmHg 93%
    05:00 +21°C° 0,2 mm 1 m/s 731 mmHg 94%
    06:00 +22°C° 0,1 mm 1 m/s 731 mmHg 90%
    07:00 +24°C° 0,1 mm 1 m/s 732 mmHg 86%
    08:00 +25°C° 0,1 mm 2 m/s 732 mmHg 82%
    09:00 +26°C° 0,8 mm 2 m/s 732 mmHg 78%
    10:00 +27°C° 0,8 mm 2 m/s 732 mmHg 74%
    11:00 +28°C° 0,8 mm 2 m/s 732 mmHg 70%
    12:00 +28°C° 0,3 mm 2 m/s 732 mmHg 68%
    13:00 +28°C° 0,3 mm 2 m/s 732 mmHg 66%
    14:00 +29°C° 0,3 mm 2 m/s 732 mmHg 64%
    15:00 +29°C° 0,3 mm 2 m/s 731 mmHg 66%
    16:00 +29°C° 0,3 mm 1 m/s 731 mmHg 69%
    17:00 +28°C° 0,3 mm 1 m/s 731 mmHg 71%
    18:00 +27°C° 0,2 mm 1 m/s 731 mmHg 75%
    19:00 +25°C° 0,2 mm 1 m/s 731 mmHg 79%
    20:00 +24°C° 0,2 mm 1 m/s 731 mmHg 83%
    21:00 +23°C° 0 mm 1 m/s 731 mmHg 85%
    22:00 +23°C° 0 mm 1 m/s 731 mmHg 87%
    23:00 +22°C° 0 mm 1 m/s 731 mmHg 89%

    22 Julho, Domingo

    Tempo Temperatura Precipitação Vento Pressão Humidade
    00:00 +22°C° 0 mm 1 m/s 731 mmHg 89%
    01:00 +21°C° 0 mm 1 m/s 731 mmHg 90%
    02:00 +21°C° 0 mm 1 m/s 731 mmHg 91%
    03:00 +21°C° 0 mm 1 m/s 731 mmHg 92%
    04:00 +21°C° 0 mm 1 m/s 731 mmHg 92%
    05:00 +21°C° 0 mm 1 m/s 731 mmHg 92%
    06:00 +23°C° 0 mm 2 m/s 731 mmHg 88%
    07:00 +24°C° 0 mm 2 m/s 731 mmHg 84%
    08:00 +26°C° 0 mm 2 m/s 731 mmHg 81%
    09:00 +26°C° 0,3 mm 3 m/s 731 mmHg 77%
    10:00 +27°C° 0,3 mm 3 m/s 731 mmHg 73%
    11:00 +28°C° 0,3 mm 3 m/s 731 mmHg 70%
    12:00 +28°C° 1,5 mm 3 m/s 731 mmHg 70%
    13:00 +28°C° 1,5 mm 3 m/s 731 mmHg 70%
    14:00 +28°C° 1,5 mm 3 m/s 731 mmHg 71%
    15:00 +28°C° 0,6 mm 2 m/s 731 mmHg 72%
    16:00 +28°C° 0,6 mm 2 m/s 731 mmHg 74%
    17:00 +27°C° 0,6 mm 1 m/s 731 mmHg 76%
    18:00 +26°C° 0,2 mm 1 m/s 731 mmHg 80%
    19:00 +25°C° 0,2 mm 1 m/s 731 mmHg 84%
    20:00 +23°C° 0,2 mm 1 m/s 731 mmHg 88%
    21:00 +23°C° 0 mm 1 m/s 731 mmHg 89%
    22:00 +22°C° 0 mm 1 m/s 731 mmHg 91%
    23:00 +22°C° 0 mm 1 m/s 731 mmHg 93%

    23 Julho, Segunda-feira

    Tempo Temperatura Precipitação Vento Pressão Humidade
    00:00 +21°C° 0 mm 1 m/s 731 mmHg 93%
    01:00 +21°C° 0 mm 1 m/s 731 mmHg 94%
    02:00 +20°C° 0 mm 1 m/s 731 mmHg 95%
    03:00 +20°C° 0 mm 1 m/s 731 mmHg 95%
    04:00 +21°C° 0 mm 1 m/s 731 mmHg 95%
    05:00 +21°C° 0 mm 1 m/s 731 mmHg 94%
    06:00 +22°C° 0 mm 1 m/s 731 mmHg 90%
    07:00 +23°C° 0 mm 1 m/s 731 mmHg 86%
    08:00 +24°C° 0 mm 2 m/s 731 mmHg 81%
    09:00 +25°C° 0,1 mm 2 m/s 731 mmHg 78%
    10:00 +26°C° 0,1 mm 2 m/s 731 mmHg 75%
    11:00 +27°C° 0,1 mm 2 m/s 731 mmHg 72%
    12:00 +27°C° 0,7 mm 2 m/s 731 mmHg 70%
    13:00 +27°C° 0,7 mm 2 m/s 731 mmHg 69%
    14:00 +28°C° 0,7 mm 2 m/s 731 mmHg 68%
    15:00 +27°C° 1,2 mm 2 m/s 731 mmHg 71%
    16:00 +27°C° 1,2 mm 2 m/s 731 mmHg 74%
    17:00 +27°C° 1,2 mm 2 m/s 731 mmHg 77%
    18:00 +25°C° 0,2 mm 2 m/s 731 mmHg 81%
    19:00 +24°C° 0,2 mm 2 m/s 731 mmHg 84%
    20:00 +23°C° 0,2 mm 2 m/s 731 mmHg 88%
    21:00 +21°C° 0,1 mm 2 m/s 731 mmHg 90%
    22:00 +21°C° 0,1 mm 2 m/s 731 mmHg 92%
    23:00 +20°C° 0,1 mm 2 m/s 732 mmHg 94%

    24 Julho, Terça-feira

    Tempo Temperatura Precipitação Vento Pressão Humidade
    00:00 +20°C° 0 mm 2 m/s 732 mmHg 94%
    01:00 +19°C° 0 mm 2 m/s 732 mmHg 95%
    02:00 +19°C° 0 mm 2 m/s 732 mmHg 95%
    03:00 +19°C° 0 mm 2 m/s 732 mmHg 95%
    04:00 +19°C° 0 mm 2 m/s 732 mmHg 95%
    05:00 +19°C° 0 mm 2 m/s 732 mmHg 95%
    06:00 +21°C° 0 mm 2 m/s 733 mmHg 92%
    07:00 +22°C° 0 mm 3 m/s 733 mmHg 89%
    08:00 +24°C° 0 mm 3 m/s 733 mmHg 85%
    09:00 +25°C° 0,1 mm 3 m/s 733 mmHg 81%
    10:00 +26°C° 0,1 mm 3 m/s 733 mmHg 76%
    11:00 +27°C° 0,1 mm 3 m/s 733 mmHg 72%
    12:00 +27°C° 0,3 mm 3 m/s 733 mmHg 70%
    13:00 +28°C° 0,3 mm 3 m/s 734 mmHg 68%
    14:00 +28°C° 0,3 mm 4 m/s 734 mmHg 66%
    15:00 +28°C° 0,3 mm 3 m/s 734 mmHg 70%
    16:00 +28°C° 0,3 mm 3 m/s 734 mmHg 73%
    17:00 +28°C° 0,3 mm 3 m/s 734 mmHg 76%
    18:00 +26°C° 0,2 mm 3 m/s 734 mmHg 79%
    19:00 +25°C° 0,2 mm 3 m/s 734 mmHg 83%
    20:00 +22°C° 0,2 mm 3 m/s 734 mmHg 87%
    21:00 +22°C° 0 mm 3 m/s 734 mmHg 88%
    22:00 +21°C° 0 mm 2 m/s 735 mmHg 90%
    23:00 +20°C° 0 mm 2 m/s 735 mmHg 91%
    Mostrar mais